TimeCDT,TemperatureF,Dew PointF,Humidity,Sea Level PressureIn,VisibilityMPH,Wind Direction,Wind SpeedMPH,Gust SpeedMPH,PrecipitationIn,Events,Conditions,WindDirDegrees,DateUTC
12:54 AM,63.0,55.9,78,30.02,10.0,SSW,5.8,-,N/A,,Clear,200,2013-07-04 05:54:00
1:54 AM,64.9,55.0,70,30.01,10.0,WSW,3.5,-,N/A,,Clear,250,2013-07-04 06:54:00
2:54 AM,64.0,55.0,73,30.00,10.0,NNE,3.5,-,N/A,,Clear,20,2013-07-04 07:54:00
3:54 AM,64.0,55.9,75,29.99,10.0,Calm,Calm,-,N/A,,Clear,0,2013-07-04 08:54:00
4:54 AM,64.9,54.0,68,30.00,10.0,Calm,Calm,-,N/A,,Clear,0,2013-07-04 09:54:00
5:54 AM,64.0,55.0,73,30.01,10.0,Calm,Calm,-,N/A,,Clear,0,2013-07-04 10:54:00
6:54 AM,66.0,55.0,68,30.03,10.0,WSW,3.5,-,N/A,,Clear,240,2013-07-04 11:54:00
7:54 AM,69.1,55.9,63,30.04,10.0,South,3.5,-,N/A,,Clear,190,2013-07-04 12:54:00
8:54 AM,71.1,57.0,61,30.04,10.0,Variable,5.8,-,N/A,,Clear,0,2013-07-04 13:54:00
9:54 AM,73.9,57.9,57,30.03,10.0,SSW,4.6,-,N/A,,Clear,200,2013-07-04 14:54:00
10:54 AM,77.0,60.1,56,30.03,10.0,Calm,Calm,-,N/A,,Clear,0,2013-07-04 15:54:00
11:54 AM,81.0,61.0,50,30.02,10.0,South,6.9,-,N/A,,Clear,170,2013-07-04 16:54:00
12:54 PM,84.0,57.9,41,30.01,10.0,Variable,5.8,-,N/A,,Clear,0,2013-07-04 17:54:00
1:54 PM,84.9,55.9,37,29.99,10.0,South,5.8,-,N/A,,Partly Cloudy,190,2013-07-04 18:54:00
2:54 PM,84.9,53.1,33,29.98,10.0,SSE,6.9,16.1,N/A,,Partly Cloudy,160,2013-07-04 19:54:00
3:54 PM,86.0,55.0,35,29.96,10.0,Variable,5.8,-,N/A,,Partly Cloudy,0,2013-07-04 20:54:00
4:54 PM,86.0,53.1,32,29.96,10.0,SSE,10.4,-,N/A,,Scattered Clouds,150,2013-07-04 21:54:00
5:54 PM,84.9,53.1,33,29.94,10.0,SE,11.5,16.1,N/A,,Clear,130,2013-07-04 22:54:00
6:54 PM,84.9,54.0,34,29.93,10.0,SSE,4.6,-,N/A,,Clear,160,2013-07-04 23:54:00
7:54 PM,82.9,54.0,37,29.94,10.0,SE,6.9,-,N/A,,Clear,130,2013-07-05 00:54:00
8:54 PM,82.0,54.0,38,29.93,10.0,SE,8.1,-,N/A,,Clear,140,2013-07-05 01:54:00
9:54 PM,80.1,55.0,42,29.95,10.0,SE,11.5,-,N/A,,Clear,140,2013-07-05 02:54:00
10:54 PM,78.1,57.9,50,29.96,9.0,SSE,10.4,-,N/A,,Clear,160,2013-07-05 03:54:00
11:54 PM,75.9,57.0,52,29.96,9.0,South,11.5,-,N/A,,Clear,170,2013-07-05 04:54:00